TimeCDT,TemperatureF,Dew PointF,Humidity,Sea Level PressureIn,VisibilityMPH,Wind Direction,Wind SpeedMPH,Gust SpeedMPH,PrecipitationIn,Events,Conditions,WindDirDegrees,DateUTC
12:12 AM,55.4,55.4,100,30.03,10.0,Calm,Calm,-,N/A,,Clear,0,2012-09-02 05:12:00
12:32 AM,55.4,53.6,94,30.03,7.0,Calm,Calm,-,N/A,,Clear,0,2012-09-02 05:32:00
12:52 AM,55.4,53.6,94,30.03,10.0,Calm,Calm,-,N/A,,Clear,0,2012-09-02 05:52:00
1:12 AM,55.4,55.4,100,30.03,10.0,Calm,Calm,-,N/A,,Clear,0,2012-09-02 06:12:00
1:31 AM,57.2,55.4,94,30.03,10.0,Calm,Calm,-,N/A,,Clear,0,2012-09-02 06:31:00
1:52 AM,53.6,53.6,100,30.03,10.0,Calm,Calm,-,N/A,,Clear,0,2012-09-02 06:52:00
2:12 AM,53.6,53.6,100,30.03,10.0,Calm,Calm,-,N/A,,Clear,0,2012-09-02 07:12:00
2:32 AM,-9999,53.6,N/A,30.03,10.0,Calm,Calm,-,N/A,,Clear,0,2012-09-02 07:32:00
2:52 AM,55.4,53.6,94,30.02,10.0,Calm,Calm,-,N/A,,Clear,0,2012-09-02 07:52:00
3:12 AM,53.6,51.8,94,30.03,10.0,Calm,Calm,-,N/A,,Clear,0,2012-09-02 08:12:00
3:32 AM,53.6,51.8,94,30.02,10.0,Calm,Calm,-,N/A,,Clear,0,2012-09-02 08:32:00
3:52 AM,55.4,53.6,94,30.02,10.0,Calm,Calm,-,N/A,,Clear,0,2012-09-02 08:52:00
4:12 AM,51.8,51.8,100,30.02,10.0,Calm,Calm,-,N/A,,Clear,0,2012-09-02 09:12:00
4:32 AM,53.6,53.6,100,30.01,10.0,Calm,Calm,-,N/A,,Clear,0,2012-09-02 09:32:00
4:52 AM,51.8,50.0,94,30.01,10.0,Calm,Calm,-,N/A,,Clear,0,2012-09-02 09:52:00
5:12 AM,51.8,50.0,94,30.01,10.0,Calm,Calm,-,N/A,,Clear,0,2012-09-02 10:12:00
5:32 AM,50.0,48.2,94,30.01,10.0,Calm,Calm,-,N/A,,Clear,0,2012-09-02 10:32:00
5:52 AM,51.8,51.8,100,30.00,10.0,Calm,Calm,-,N/A,,Clear,0,2012-09-02 10:52:00
6:12 AM,51.8,50.0,94,30.00,10.0,Calm,Calm,-,N/A,,Clear,0,2012-09-02 11:12:00
6:32 AM,51.8,51.8,100,30.00,10.0,Calm,Calm,-,N/A,,Clear,0,2012-09-02 11:32:00
6:52 AM,51.8,50.0,94,30.00,10.0,Calm,Calm,-,N/A,,Clear,0,2012-09-02 11:52:00
7:12 AM,53.6,51.8,94,30.00,10.0,Calm,Calm,-,N/A,,Clear,0,2012-09-02 12:12:00
7:32 AM,53.6,51.8,94,30.00,10.0,Calm,Calm,-,N/A,,Clear,0,2012-09-02 12:32:00
7:52 AM,55.4,53.6,94,30.00,10.0,Calm,Calm,-,N/A,,Clear,0,2012-09-02 12:52:00
8:12 AM,57.2,55.4,94,30.00,10.0,Calm,Calm,-,N/A,,Clear,0,2012-09-02 13:12:00
8:32 AM,60.8,55.4,82,30.00,10.0,Calm,Calm,-,N/A,,Clear,0,2012-09-02 13:32:00
8:52 AM,62.6,57.2,82,30.00,10.0,Calm,Calm,-,N/A,,Clear,0,2012-09-02 13:52:00
9:12 AM,64.4,57.2,77,29.99,10.0,North,-9999.0,-,N/A,,Clear,0,2012-09-02 14:12:00
9:32 AM,64.4,57.2,77,29.99,10.0,SE,5.8,-,N/A,,Clear,130,2012-09-02 14:32:00
9:52 AM,66.2,57.2,73,29.99,10.0,SE,6.9,-,N/A,,Clear,130,2012-09-02 14:52:00
10:11 AM,68.0,59.0,73,29.99,10.0,SE,5.8,-,N/A,,Clear,140,2012-09-02 15:11:00
10:32 AM,69.8,60.8,73,29.99,10.0,SSE,5.8,-,N/A,,Clear,150,2012-09-02 15:32:00
10:52 AM,71.6,62.6,73,29.99,10.0,SE,3.5,-,N/A,,Clear,130,2012-09-02 15:52:00
11:11 AM,73.4,62.6,69,29.99,10.0,South,4.6,-,N/A,,Clear,190,2012-09-02 16:11:00
11:32 AM,73.4,62.6,69,29.98,10.0,ESE,5.8,-,N/A,,Clear,120,2012-09-02 16:32:00
11:52 AM,75.2,64.4,69,29.97,10.0,SE,4.6,-,N/A,,Clear,140,2012-09-02 16:52:00
12:11 PM,75.2,64.4,69,29.96,10.0,SE,8.1,-,N/A,,Clear,140,2012-09-02 17:11:00
12:32 PM,78.8,64.4,61,29.95,10.0,ESE,5.8,-,N/A,,Clear,120,2012-09-02 17:32:00
12:52 PM,78.8,66.2,65,29.95,10.0,SE,4.6,-,N/A,,Clear,140,2012-09-02 17:52:00
1:12 PM,80.6,66.2,61,29.94,10.0,SE,8.1,-,N/A,,Clear,140,2012-09-02 18:12:00
1:32 PM,80.6,66.2,61,29.93,10.0,SE,9.2,-,N/A,,Clear,140,2012-09-02 18:32:00
1:52 PM,82.4,66.2,58,29.92,7.0,SSE,9.2,-,N/A,,Clear,150,2012-09-02 18:52:00
2:12 PM,82.4,66.2,58,29.92,10.0,SE,12.7,-,N/A,,Clear,140,2012-09-02 19:12:00
2:32 PM,82.4,66.2,58,29.91,10.0,SSE,8.1,-,N/A,,Clear,150,2012-09-02 19:32:00
2:52 PM,84.2,66.2,55,29.90,7.0,SSE,9.2,16.1,N/A,,Clear,150,2012-09-02 19:52:00
3:12 PM,84.2,66.2,55,29.89,7.0,SSE,8.1,-,N/A,,Clear,160,2012-09-02 20:12:00
3:32 PM,84.2,66.2,55,29.89,7.0,SE,11.5,-,N/A,,Clear,140,2012-09-02 20:32:00
3:52 PM,86.0,66.2,51,29.88,10.0,SE,10.4,-,N/A,,Clear,140,2012-09-02 20:52:00
4:12 PM,84.2,66.2,55,29.88,10.0,SE,8.1,-,N/A,,Clear,140,2012-09-02 21:12:00
4:32 PM,86.0,66.2,51,29.88,10.0,South,9.2,-,N/A,,Clear,170,2012-09-02 21:32:00
4:52 PM,84.2,66.2,55,29.88,7.0,SSE,12.7,-,N/A,,Clear,150,2012-09-02 21:52:00
5:12 PM,84.2,66.2,55,29.88,10.0,SE,8.1,-,N/A,,Clear,140,2012-09-02 22:12:00
5:32 PM,82.4,68.0,62,29.87,10.0,SE,6.9,-,N/A,,Clear,140,2012-09-02 22:32:00
5:52 PM,84.2,68.0,58,29.86,10.0,SE,6.9,-,N/A,,Clear,140,2012-09-02 22:52:00
6:12 PM,84.2,66.2,55,29.85,10.0,SE,9.2,-,N/A,,Clear,140,2012-09-02 23:12:00
6:32 PM,80.6,66.2,61,29.85,10.0,SE,6.9,-,N/A,,Clear,140,2012-09-02 23:32:00
6:51 PM,80.6,66.2,61,29.85,10.0,SSE,5.8,-,N/A,,Clear,150,2012-09-02 23:51:00
7:12 PM,78.8,66.2,65,29.85,10.0,SSE,4.6,-,N/A,,Clear,150,2012-09-03 00:12:00
7:32 PM,77.0,68.0,74,29.87,10.0,Calm,Calm,-,N/A,,Clear,0,2012-09-03 00:32:00
7:51 PM,75.2,68.0,78,29.87,10.0,Calm,Calm,-,N/A,,Clear,0,2012-09-03 00:51:00
8:12 PM,73.4,66.2,78,29.87,10.0,Calm,Calm,-,N/A,,Clear,0,2012-09-03 01:12:00
8:32 PM,71.6,66.2,83,29.87,7.0,SE,3.5,-,N/A,,Clear,140,2012-09-03 01:32:00
8:51 PM,71.6,66.2,83,29.87,10.0,SE,3.5,-,N/A,,Clear,130,2012-09-03 01:51:00
9:12 PM,73.4,66.2,78,29.87,10.0,Calm,Calm,-,N/A,,Clear,0,2012-09-03 02:12:00
9:32 PM,71.6,66.2,83,29.87,10.0,SSE,4.6,-,N/A,,Clear,150,2012-09-03 02:32:00
9:51 PM,71.6,66.2,83,29.86,10.0,SSE,4.6,-,N/A,,Clear,150,2012-09-03 02:51:00
10:12 PM,73.4,66.2,78,29.85,10.0,SE,5.8,-,N/A,,Clear,140,2012-09-03 03:12:00
10:32 PM,71.6,66.2,83,29.86,7.0,Calm,Calm,-,N/A,,Clear,0,2012-09-03 03:32:00
11:12 PM,69.8,66.2,88,29.88,10.0,South,4.6,-,N/A,,Clear,190,2012-09-03 04:12:00
11:51 PM,71.6,66.2,83,29.87,10.0,Calm,Calm,-,N/A,,Clear,0,2012-09-03 04:51:00